Погода в Лобиту

Ангола     12°22′37″S   13°34′19″E
темп.,
°C
ветер,
м/с
пор.,
м/с
влажн.,
%
обл.,
%
осадки,
мм/ч
давл.,
гПа
погр.,
м
7 мая, пт
пт701:00+24ююв228526 0.1 101288
04:00+24ююв22828 0.0 101181
07:00+25юв11758 0.0 101286
10:00+28ссз326643 0.0 1014552
13:00+28зсз436914 0.0 1012733
16:00+27зсз3274100 0.0 1011441
19:00+25зюз228593 0.0 1013177
22:00+25юз238785 0.0 1014190
8 мая, сб
сб801:00+25зюз228574 0.0 1013268
04:00+25ю118692 0.1 1013184
07:00+25всв118494 0.1 1014157
10:00+28с217051 0.0 1014633
13:00+27сз327370 0.0 1012591
16:00+27з337832 0.3 1011517
19:00+25зюз228872 2.7 1013211
22:00+25зюз018897 0.4 101496
9 мая, вс
вс901:00+25ююз118997 0.6 1013145
04:00+25ююв018870 0.0 1012145
07:00+25ююв118878 0.3 1013110
10:00+27ссз227771 0.2 1014509
13:00+27сз437883 0.3 1012510
16:00+27зсз337757 0.1 1011509
19:00+26зюз118433 0.4 1013125
22:00+25юз118639 0.0 1014126
10 мая, пн
пн1001:00+25ю118523 0.1 1013136
04:00+24ю228865 0.0 1012104
07:00+25всв11841 0.1 1014124
10:00+28сз217111 0.0 1014614
13:00+28сз437432 0.0 1012579
16:00+27зсз33743 0.9 1011453
19:00+26зюз22830 0.9 1013140
22:00+25ююз01856 0.0 1014106
11 мая, вт
вт1101:00+25ююз228596 0.0 1013164
04:00+24ююз11850 0.0 1013103
07:00+25ю11810 0.0 1014103
10:00+28ссз22690 0.0 1015539
13:00+28сз44725 0.0 1013387
16:00+27зсз337782 0.0 1012500
19:00+25зюз22875 0.0 1013176
22:00+24ююв019011 0.0 1015128